Regional Weather Roundup
Issued by NWS

Home | Current Version | Previous Version | Text Only | Print | Product List | Glossary On
Versions: 1 2 3 4 5 6 7 8 9 10 11 12 13 14 15 16 17 18 19 20 21 22 23 24 25 26 27 28 29 30 31 32 33 34 35 36 37 38 39 40 41 42 43 44 45 46 47 48 49 50
000
ASUS44 KMEG 301610
RWRTN
TENNESSEE HOURLY STATE WEATHER ROUNDUP
NATIONAL WEATHER SERVICE MEMPHIS TN
1100 AM CDT TUE SEP 30 2014

TNZ002-004-019-021-049-052-054-088>092-301700-
WEST TENNESSEE

CITY           SKY/WX    TMP DP  RH WIND       PRES   REMARKS
MEMPHIS INTL   MOSUNNY   81  62  52 VRB3      29.96S
NWS MEMPHIS      N/A     82 N/A N/A MISG        N/A
JACKSON        SUNNY     79  63  57 CALM      29.96S
DYERSBURG      SUNNY     81  57  44 CALM      29.96F
UNION CITY     SUNNY     79  61  53 CALM      29.96S
PARIS          SUNNY     81  52  36 E3        29.97S
HUNTINGDON     SUNNY     79  60  51 CALM      29.96S
LEXINGTON      SUNNY     79  63  57 S3        29.96S
SAVANNAH       SUNNY     81  64  57 VRB5      29.96S
$$

TNZ008-025-027-028-033-062-065-066-301700-
NORTH MIDDLE TENNESSEE

CITY           SKY/WX    TMP DP  RH WIND       PRES   REMARKS
NASHVILLE      MOSUNNY   82  59  45 CALM      29.97S
DICKSON        SUNNY     81  54  39 VRB3      29.97S
PORTLAND       SUNNY     77  55  47 VRB3      29.97R
CLARKSVILLE    SUNNY     81  55  40 CALM      29.97S
LEBANON        SUNNY     78  62  57 CALM      29.96R
SMYRNA         MOSUNNY   81  63  54 NE6       29.98R
MURFREESBORO   SUNNY     79  60  51 VRB3      29.96S
COOKEVILLE     SUNNY     79  64  61 CALM      29.98S
LIVINGSTON     SUNNY     75  59  57 CALM      29.99S
GALLATIN       SUNNY     77  65  66 CALM      29.98S
CROSSVILLE     MOSUNNY   76  58  53 VRB3      30.01S
$$

TNZ061-075-076-078-094-096-097-301700-
SOUTH MIDDLE TENNESSEE

CITY           SKY/WX    TMP DP  RH WIND       PRES   REMARKS
LEWISBURG      SUNNY     80  66  62 CALM      29.96S
FAYETTEVILLE   MOSUNNY   72  64  78 SW3       29.99S
TULLAHOMA      SUNNY     79  63  57 W5        29.99S
WINCHESTER     SUNNY     77  64  65 CALM      29.98F
MCMINNVILLE    SUNNY     79  66  65 W5        29.97F
COLUMBIA       SUNNY     82  66  57 SW6       29.96S
SHELBYVILLE    SUNNY     81  66  61 W3        29.98S
$$

TNZ017-018-042-046-047-301700-
NORTHEAST TENNESSEE

CITY           SKY/WX    TMP DP  RH WIND       PRES   REMARKS
TRI CITIES     SUNNY     72  59  63 VRB5      29.99F
ELIZABETHTON   SUNNY     72  59  64 VRB3      29.99F
$$

TNZ012-013-036-069-073-074-301700-
CENTRAL EAST TENNESSEE

CITY           SKY/WX    TMP DP  RH WIND       PRES   REMARKS
KNOXVILLE      MOSUNNY   73  64  73 W5        29.97F
OAK RIDGE      CLOUDY    68  63  84 W3        30.00S
GATLINBURG     SUNNY     73  61  64 CALM      29.97F
$$

TNZ083-085-099-301700-
SOUTHEAST TENNESSEE

CITY           SKY/WX    TMP DP  RH WIND       PRES   REMARKS
CHATTANOOGA    MOSUNNY   74  64  71 N3        29.98F
$$

SKY/WX REPORTED AS FAIR MEANS FEW OR NO CLOUDS BELOW
12 THOUSAND FEET.



USA.gov is the U.S. government's official web portal to all federal, state and local government web resources and services.